Previsão horária em Abdaevo

Hoje, 17 Abril, Sábado

Tempo Temperatura Precipitação Vento Pressão Humidade
00:00 +3°C° 0 mm 3 m/s 753 mmHg 74%
01:00 +3°C° 0 mm 3 m/s 753 mmHg 74%
02:00 +2°C° 0 mm 3 m/s 753 mmHg 75%
03:00 0°C° 0 mm 3 m/s 754 mmHg 79%
04:00 0°C° 0 mm 3 m/s 754 mmHg 78%
05:00 0°C° 0 mm 3 m/s 754 mmHg 77%
06:00 0°C° 0 mm 3 m/s 754 mmHg 76%
07:00 +1°C° 0 mm 4 m/s 754 mmHg 71%
08:00 +3°C° 0 mm 4 m/s 754 mmHg 65%
09:00 +5°C° 0 mm 4 m/s 754 mmHg 60%
10:00 +6°C° 0 mm 4 m/s 754 mmHg 57%
11:00 +7°C° 0 mm 4 m/s 754 mmHg 54%
12:00 +8°C° 0 mm 4 m/s 754 mmHg 51%
13:00 +8°C° 0 mm 4 m/s 754 mmHg 51%
14:00 +8°C° 0 mm 4 m/s 754 mmHg 52%
15:00 +10°C° 0 mm 4 m/s 753 mmHg 52%
16:00 +9°C° 0 mm 3 m/s 753 mmHg 58%
17:00 +8°C° 0 mm 3 m/s 753 mmHg 64%
18:00 +7°C° 0 mm 3 m/s 753 mmHg 70%
19:00 +5°C° 0 mm 3 m/s 753 mmHg 76%
20:00 +4°C° 0 mm 2 m/s 752 mmHg 81%
21:00 +3°C° 0 mm 2 m/s 752 mmHg 86%
22:00 +2°C° 0 mm 2 m/s 752 mmHg 87%
23:00 +2°C° 0 mm 2 m/s 752 mmHg 87%

Amanhã, 18 Abril, Domingo

Tempo Temperatura Precipitação Vento Pressão Humidade
00:00 +2°C° 0 mm 2 m/s 752 mmHg 88%
01:00 +1°C° 0 mm 2 m/s 752 mmHg 88%
02:00 +1°C° 0 mm 2 m/s 752 mmHg 88%
03:00 +1°C° 0 mm 2 m/s 752 mmHg 89%
04:00 +1°C° 0 mm 2 m/s 752 mmHg 87%
05:00 +2°C° 0 mm 2 m/s 752 mmHg 85%
06:00 +2°C° 0 mm 2 m/s 752 mmHg 84%
07:00 +4°C° 0 mm 2 m/s 752 mmHg 75%
08:00 +5°C° 0 mm 3 m/s 752 mmHg 67%
09:00 +8°C° 0 mm 3 m/s 752 mmHg 59%
10:00 +8°C° 0 mm 4 m/s 752 mmHg 57%
11:00 +10°C° 0 mm 4 m/s 752 mmHg 54%
12:00 +9°C° 0 mm 5 m/s 752 mmHg 52%
13:00 +9°C° 0 mm 5 m/s 752 mmHg 56%
14:00 +8°C° 0 mm 6 m/s 752 mmHg 61%
15:00 +7°C° 0 mm 6 m/s 753 mmHg 65%
16:00 +6°C° 0 mm 5 m/s 753 mmHg 65%
17:00 +6°C° 0 mm 5 m/s 753 mmHg 64%
18:00 +5°C° 0 mm 4 m/s 753 mmHg 64%
19:00 +3°C° 0 mm 5 m/s 754 mmHg 61%
20:00 +2°C° 0 mm 5 m/s 754 mmHg 59%
21:00 +1°C° 0 mm 5 m/s 754 mmHg 56%
22:00 0°C° 0 mm 5 m/s 755 mmHg 59%
23:00 0°C° 0 mm 5 m/s 755 mmHg 61%

Depois de amanhã, 19 Abril, Segunda-feira

Tempo Temperatura Precipitação Vento Pressão Humidade
00:00 -1°C° 0 mm 4 m/s 755 mmHg 63%
01:00 -1°C° 0 mm 4 m/s 755 mmHg 64%
02:00 -1°C° 0 mm 4 m/s 756 mmHg 65%
03:00 -2°C° 0 mm 4 m/s 756 mmHg 67%
04:00 -2°C° 0 mm 5 m/s 756 mmHg 65%
05:00 -2°C° 0 mm 5 m/s 756 mmHg 63%
06:00 -2°C° 0 mm 5 m/s 757 mmHg 61%
07:00 -1°C° 0 mm 5 m/s 757 mmHg 53%
08:00 -1°C° 0 mm 6 m/s 757 mmHg 45%
09:00 +1°C° 0 mm 6 m/s 757 mmHg 37%
10:00 +2°C° 0 mm 6 m/s 757 mmHg 35%
11:00 +3°C° 0 mm 6 m/s 757 mmHg 32%
12:00 +4°C° 0 mm 6 m/s 757 mmHg 29%
13:00 +4°C° 0 mm 6 m/s 757 mmHg 29%
14:00 +5°C° 0 mm 6 m/s 757 mmHg 28%
15:00 +5°C° 0 mm 6 m/s 757 mmHg 28%
16:00 +5°C° 0 mm 5 m/s 757 mmHg 31%
17:00 +5°C° 0 mm 5 m/s 757 mmHg 34%
18:00 +4°C° 0 mm 4 m/s 757 mmHg 37%
19:00 +3°C° 0 mm 4 m/s 757 mmHg 42%
20:00 0°C° 0 mm 4 m/s 758 mmHg 46%
21:00 -1°C° 0 mm 4 m/s 758 mmHg 51%
22:00 -1°C° 0 mm 4 m/s 758 mmHg 51%
23:00 -2°C° 0 mm 4 m/s 758 mmHg 52%

20 Abril, Terça-feira

Tempo Temperatura Precipitação Vento Pressão Humidade
00:00 -2°C° 0 mm 4 m/s 758 mmHg 52%
01:00 -2°C° 0 mm 4 m/s 758 mmHg 53%
02:00 -3°C° 0 mm 4 m/s 758 mmHg 53%
03:00 -3°C° 0 mm 4 m/s 759 mmHg 53%
04:00 -2°C° 0 mm 4 m/s 759 mmHg 52%
05:00 -2°C° 0 mm 4 m/s 759 mmHg 52%
06:00 -2°C° 0 mm 4 m/s 759 mmHg 51%
07:00 0°C° 0 mm 4 m/s 759 mmHg 45%
08:00 +2°C° 0 mm 5 m/s 759 mmHg 39%
09:00 +5°C° 0 mm 5 m/s 759 mmHg 33%
10:00 +4°C° 0 mm 6 m/s 759 mmHg 32%
11:00 +5°C° 0 mm 6 m/s 758 mmHg 30%
12:00 +7°C° 0 mm 6 m/s 758 mmHg 29%
13:00 +7°C° 0 mm 6 m/s 758 mmHg 28%
14:00 +8°C° 0 mm 6 m/s 757 mmHg 28%
15:00 +8°C° 0 mm 6 m/s 757 mmHg 28%
16:00 +7°C° 0 mm 5 m/s 757 mmHg 31%
17:00 +7°C° 0 mm 5 m/s 757 mmHg 35%
18:00 +6°C° 0 mm 4 m/s 756 mmHg 38%
19:00 +5°C° 0 mm 4 m/s 756 mmHg 41%
20:00 +4°C° 0 mm 4 m/s 756 mmHg 44%
21:00 +2°C° 0 mm 5 m/s 756 mmHg 47%
22:00 +1°C° 0 mm 5 m/s 756 mmHg 49%
23:00 +1°C° 0 mm 5 m/s 756 mmHg 50%

21 Abril, Quarta-feira

Tempo Temperatura Precipitação Vento Pressão Humidade
00:00 +1°C° 0 mm 5 m/s 755 mmHg 51%
01:00 0°C° 0 mm 5 m/s 755 mmHg 52%
02:00 0°C° 0 mm 5 m/s 755 mmHg 53%
03:00 -1°C° 0 mm 6 m/s 755 mmHg 53%
04:00 -1°C° 0 mm 6 m/s 754 mmHg 53%
05:00 -1°C° 0 mm 6 m/s 754 mmHg 52%
06:00 -1°C° 0 mm 6 m/s 753 mmHg 51%
07:00 +2°C° 0 mm 7 m/s 753 mmHg 49%
08:00 +3°C° 0 mm 7 m/s 753 mmHg 47%
09:00 +4°C° 0 mm 7 m/s 753 mmHg 44%
10:00 +4°C° 0.1 mm 7 m/s 753 mmHg 48%
11:00 +4°C° 0.1 mm 7 m/s 753 mmHg 52%
12:00 +4°C° 0.1 mm 7 m/s 753 mmHg 57%
13:00 +3°C° 0.4 mm 7 m/s 753 mmHg 60%
14:00 +3°C° 0.4 mm 7 m/s 753 mmHg 64%
15:00 +2°C° 0.4 mm 7 m/s 753 mmHg 68%
16:00 +2°C° 0.3 mm 7 m/s 752 mmHg 70%
17:00 +2°C° 0.3 mm 7 m/s 752 mmHg 72%
18:00 +2°C° 0.3 mm 7 m/s 752 mmHg 74%
19:00 +2°C° 0.2 mm 7 m/s 752 mmHg 77%
20:00 +2°C° 0.2 mm 7 m/s 752 mmHg 80%
21:00 0°C° 0.2 mm 7 m/s 752 mmHg 83%
22:00 +1°C° 0.1 mm 6 m/s 752 mmHg 85%
23:00 +1°C° 0.1 mm 6 m/s 752 mmHg 87%

22 Abril, Quinta-feira

Tempo Temperatura Precipitação Vento Pressão Humidade
00:00 +1°C° 0.1 mm 6 m/s 752 mmHg 89%
01:00 +2°C° 0 mm 6 m/s 752 mmHg 89%
02:00 +2°C° 0 mm 6 m/s 752 mmHg 89%
03:00 +2°C° 0 mm 5 m/s 753 mmHg 90%
04:00 +2°C° 0 mm 5 m/s 753 mmHg 91%
05:00 +2°C° 0 mm 5 m/s 753 mmHg 92%
06:00 +2°C° 0 mm 5 m/s 753 mmHg 92%
07:00 +2°C° 0 mm 5 m/s 753 mmHg 92%
08:00 +3°C° 0 mm 4 m/s 754 mmHg 92%
09:00 +3°C° 0 mm 4 m/s 754 mmHg 92%
10:00 +4°C° 0 mm 4 m/s 754 mmHg 92%
11:00 +4°C° 0 mm 4 m/s 754 mmHg 92%
12:00 +4°C° 0 mm 4 m/s 755 mmHg 93%
13:00 +4°C° 0 mm 4 m/s 755 mmHg 93%
14:00 +4°C° 0 mm 4 m/s 755 mmHg 93%
15:00 +4°C° 0 mm 4 m/s 755 mmHg 93%
16:00 +4°C° 0 mm 4 m/s 755 mmHg 93%
17:00 +4°C° 0 mm 3 m/s 756 mmHg 94%
18:00 +4°C° 0 mm 3 m/s 756 mmHg 94%
19:00 +4°C° 0 mm 3 m/s 756 mmHg 94%
20:00 +5°C° 0 mm 2 m/s 756 mmHg 94%
21:00 +4°C° 0 mm 2 m/s 756 mmHg 94%
22:00 +4°C° 0 mm 2 m/s 756 mmHg 94%
23:00 +3°C° 0 mm 3 m/s 755 mmHg 93%
Mostrar mais